Satellite-Ground Cal/Val Site Overpasses Predictions

Prediction of Satellite NPP Overpassing Cal/Val Site: Antarctic Dome C

Ground Cal/Val Site Location: Latitude: -75.10, Longitude: 123.35; Satellite-Ground Site NADIR distance within 100 km.

Table of predicted overpasses for the next 14.0 days since TLE Epoch: 3/20/2016
Interval Starting Time Ending Time Minimum Distance Time Minimum Distance (km)
1 03/20/2016 15:02:07 03/20/2016 15:02:31 03/20/2016 15:02:19 54.12
2 03/21/2016 14:43:16 03/21/2016 14:43:40 03/21/2016 14:43:28 54.91
3 03/22/2016 07:44:56 03/22/2016 07:45:17 03/22/2016 07:45:07 70.07
4 03/23/2016 07:26:02 03/23/2016 07:26:29 03/23/2016 07:26:16 38.09
5 03/25/2016 15:08:25 03/25/2016 15:08:36 03/25/2016 15:08:30 91.58
6 03/26/2016 14:49:26 03/26/2016 14:49:54 03/26/2016 14:49:40 19.56
7 03/28/2016 07:32:13 03/28/2016 07:32:42 03/28/2016 07:32:28 2.42
8 03/31/2016 14:55:36 03/31/2016 14:56:05 03/31/2016 14:55:51 16.58
9 04/01/2016 14:36:55 04/01/2016 14:37:07 04/01/2016 14:37:01 90.36
10 04/02/2016 07:38:26 04/02/2016 07:38:53 04/02/2016 07:38
